Погода в Лаборовой

Россия / Ямало-Ненецкий автономный округ     67°38′36″N   67°32′57″E
темп.,
°C
ветер,
м/с
пор.,
м/с
влажн.,
%
обл.,
%
осадки,
мм/ч
давл.,
гПа
погр.,
м
13 апреля, вт
вт1323:00−2зсз13217312 0.0 1013750
02:00−3з13207511 0.0 1013780
05:00−4з1117775 0.0 1014588
08:00−3з11187627 0.0 1014782
11:00−1зсз13197546 0.0 10151108
14:00−1зсз121875100 0.0 1016999
17:00−1зсз91475100 0.0 1017541
20:00−4з4781100 0.0 101676
14 апреля, ср
ср1423:00−6зюз3387100 0.0 101519
02:00−10з228885 0.0 101510
05:00−12ссз2192100 0.0 101710
08:00−11сз119485 0.0 101813
11:00−6ююв2391100 0.0 1018139
14:00−4ююв6789100 0.0 1015478
17:00−3ююв6997100 0.8 1010459
20:00−2ю2298100 1.0 100578
15 апреля, чт
чт1523:00−1ююз2296100 1.1 100249
02:00−3з1197100 0.0 99912
05:00−3зсз2299100 0.3 99914
08:00−1з7118096 0.1 999278
11:00−2ссз7984100 0.1 1000840
14:00−8с9138162 0.1 1007840
17:00−10с9138247 0.1 1012795
20:00−13ссз7128157 0.0 1016214
16 апреля, пт
пт1623:00−18сз439146 0.0 102023
02:00−22сз33935 0.0 102214
05:00−24зсз32925 0.0 102410
08:00−18зсз32865 0.0 102539
11:00−13зсз257384 0.0 1025231
14:00−12зсз3467100 0.0 1026389
17:00−12зсз227765 0.0 102511
20:00−20з22855 0.0 10259
17 апреля, сб
сб1723:00−23з2292100 0.0 102510
02:00−22зсз2292100 0.0 102410
05:00−22зсз228964 0.0 102410
08:00−16з2281100 0.0 102362
11:00−10зюз2377100 0.0 1021268
14:00−7сз3881100 0.8 1020719
17:00−7ссв51091100 1.7 1021834
20:00−9с4894100 0.6 1023377